GW3986 Weather Reports


time (UTC)temp
F
wind
direction
speed
knots
gust
knots
rain 1hr
in
rain 24hr
in
rain mn
in
humidity
%
barometer
mb
20260508004524 61 300 3.5 7.8 0.00 0.09 0.08 28 1017.6
20260508003022 61 236 2.6 7.8 0.00 0.09 0.08 27 1017.4
20260508001532 60 254 3.5 7.0 0.00 0.10 0.08 28 1017.5
20260508000028 60 264 2.6 9.6 0.00 0.10 0.08 28 1017.6
20260507234534 61 216 0.9 5.2 0.00 0.11 0.08 27 1017.5
20260507233022 62 288 1.7 7.0 0.00 0.12 0.08 27 1017.6
20260507231524 61 300 2.6 7.8 0.00 0.12 0.08 28 1017.7
20260507230026 60 217 1.7 11.3 0.00 0.13 0.08 28 1017.8
20260507224547 62 275 3.5 13.9 0.00 0.14 0.08 27 1017.8
20260507223021 62 291 5.2 13.0 0.00 0.15 0.08 28 1017.7
20260507221533 62 192 2.6 9.6 0.00 0.16 0.08 27 1017.6
20260507220030 61 319 4.3 10.4 0.00 0.17 0.08 32 1017.8
20260507214532 58 326 4.3 15.6 0.00 0.18 0.08 30 1018.0
20260507213031 61 261 4.3 13.0 0.00 0.19 0.08 30 1017.9
20260507211523 61 337 5.2 11.3 0.00 0.20 0.08 33 1018.2
20260507210043 60 321 4.3 9.6 0.00 0.20 0.08 34 1018.5
20260507204528 59 248 2.6 14.8 0.00 0.20 0.08 35 1018.6
20260507203028 59 281 3.5 9.6 0.00 0.21 0.08 32 1018.8
20260507201532 60 9 2.6 9.6 0.00 0.22 0.08 34 1019.2
20260507200035 59 264 5.2 13.0 0.00 0.23 0.08 35 1019.2
20260507194514 59 305 5.2 11.3 0.00 0.24 0.08 42 1019.3
20260507193024 57 232 4.3 9.6 0.00 0.26 0.08 38 1019.4
20260507191526 56 327 3.5 9.6 0.00 0.26 0.08 38 1019.6
20260507190032 56 256 3.5 8.7 0.00 0.27 0.08 35 1019.8
20260507184525 56 325 3.5 9.6 0.00 0.27 0.08 39 1020.1
20260507183030 55 325 1.7 7.8 0.00 0.27 0.08 36 1020.1
20260507181516 54 256 2.6 4.3 0.00 0.29 0.08 35 1020.1
20260507180021 54 236 3.5 6.1 0.00 0.32 0.08 37 1019.9
20260507174524 54 242 1.7 7.0 0.00 0.32 0.08 35 1020.1
20260507173027 54 112 0.0 7.0 0.00 0.32 0.08 38 1020.3
20260507171518 53 11 1.7 7.8 0.00 0.32 0.08 41 1020.6
20260507170022 53 267 1.7 7.0 0.00 0.32 0.08 46 1020.6
20260507164526 52 232 1.7 7.0 0.01 0.32 0.08 44 1020.7
20260507163030 51 235 1.7 7.8 0.03 0.32 0.08 48 1020.8
20260507161525 49 248 3.5 7.8 0.05 0.32 0.08 51 1021.0
20260507160029 48 242 3.5 7.8 0.06 0.32 0.08 54 1021.0
20260507154524 47 259 2.6 8.7 0.07 0.31 0.07 57 1021.0
20260507153024 45 241 1.7 7.8 0.05 0.29 0.05 60 1021.0
20260507151526 44 196 3.5 8.7 0.03 0.27 0.03 57 1021.1
20260507150019 43 246 1.7 8.7 0.02 0.26 0.02 63 1021.0
20260507144530 42 255 3.5 8.7 0.00 0.24 0.00 61 1020.9
20260507143026 41 235 2.6 9.6 0.00 0.24 0.00 61 1020.9
20260507141530 40 227 1.7 6.1 0.00 0.24 0.00 62 1020.9
20260507140005 39 250 2.6 7.8 0.00 0.24 0.00 62 1020.9
20260507134507 37 257 3.5 6.1 0.00 0.24 0.00 65 1020.8
20260507133012 36 237 3.5 7.8 0.00 0.24 0.00 64 1020.4
20260507131507 34 246 2.6 7.0 0.00 0.24 0.00 67 1020.4
20260507130012 33 285 1.7 4.3 0.00 0.24 0.00 69 1020.4
20260507124511 32 252 1.7 6.1 0.00 0.24 0.00 70 1020.2
20260507123010 32 261 1.7 6.1 0.00 0.24 0.00 69 1020.1
20260507121512 31 245 1.7 7.8 0.00 0.24 0.00 70 1020.0
20260507120012 31 248 1.7 6.1 0.00 0.24 0.00 71 1019.9
20260507114513 31 240 2.6 7.0 0.00 0.24 0.00 70 1019.9
20260507113010 31 223 1.7 6.1 0.00 0.24 0.00 70 1019.9
20260507111511 30 249 3.5 7.0 0.00 0.24 0.00 70 1020.0
20260507110012 30 249 2.6 5.2 0.00 0.24 0.00 70 1019.9
20260507104516 30 268 1.7 5.2 0.00 0.24 0.00 70 1019.7
20260507103017 30 261 1.7 4.3 0.00 0.24 0.00 69 1019.9
20260507101518 31 267 2.6 7.0 0.00 0.24 0.00 68 1020.1
20260507100017 30 294 2.6 8.7 0.00 0.24 0.00 70 1020.1
20260507094518 30 248 2.6 7.8 0.00 0.24 0.00 70 1020.1
20260507093017 30 283 2.6 6.1 0.00 0.24 0.00 71 1020.0
20260507091516 30 275 3.5 7.0 0.00 0.24 0.00 73 1020.2
20260507090020 30 262 0.9 4.3 0.00 0.24 0.00 73 1020.3
20260507084518 29 261 1.7 5.2 0.00 0.24 0.00 76 1020.5
20260507081530 28 227 1.7 4.3 0.00 0.24 0.00 81 1020.6
20260507080022 27 248 2.6 6.1 0.00 0.24 0.00 84 1020.6
20260507074520 26 237 1.7 6.1 0.00 0.24 0.00 87 1020.6
20260507073021 26 236 1.7 4.3 0.00 0.24 0.00 91 1020.7
20260507071523 26 250 0.9 3.5 0.00 0.24 0.00 93 1020.7
20260507070018 25 232 1.7 2.6 0.00 0.24 0.00 94 1020.8
20260507064521 25 247 0.9 2.6 0.00 0.24 0.00 94 1020.7
20260507063019 26 216 0.0 1.7 0.00 0.24 0.00 94 1020.9
20260507061523 26 215 0.9 1.7 0.00 0.24 0.00 94 1020.9
20260507060019 27 202 0.9 3.5 0.00 0.24 0.00 94 1020.7
20260507054519 27 215 1.7 3.5 0.00 0.24 0.24 94 1020.6
20260507053024 27 214 1.7 3.5 0.00 0.24 0.24 94 1020.6
20260507050014 27 215 0.0 1.7 0.00 0.24 0.24 93 1020.4
20260507044516 27 205 0.9 3.5 0.00 0.24 0.24 93 1020.4
20260507041521 27 178 1.7 5.2 0.00 0.24 0.24 93 1020.3
20260507040011 27 187 0.9 3.5 0.00 0.24 0.24 92 1020.5
20260507034516 27 184 1.7 7.0 0.00 0.24 0.24 92 1020.4
20260507033018 27 194 0.9 5.2 0.00 0.24 0.24 91 1020.5
20260507031517 28 180 0.9 6.1 0.00 0.24 0.24 91 1020.3
20260507024515 28 180 2.6 7.8 0.00 0.24 0.24 90 1020.0
20260507023018 29 195 1.7 6.1 0.00 0.24 0.24 89 1020.0
20260507021519 29 171 3.5 6.1 0.00 0.24 0.24 88 1019.9
20260507020022 30 163 2.6 7.0 0.00 0.24 0.24 87 1019.8
20260507013031 31 211 2.6 10.4 0.01 0.24 0.24 84 1019.8
20260507011532 33 167 1.7 7.0 0.02 0.24 0.24 84 1019.8
20260507010024 34 173 2.6 7.8 0.02 0.24 0.24 81 1019.7